Weather History for St. Petersburg, FL

Change the Weather History Date:

Tuesday, June 25, 2013

  Actual Average Record
Temperature  
Mean Temperature 86 °F -  
Max Temperature 93 °F 89 °F 96 °F (1977)
Min Temperature 79 °F 75 °F 70 °F (1974)
Cooling Degree Days 21    
Growing Degree Days 36 (Base 50)    
Moisture  
Dew Point 75 °F    
Average Humidity 75    
Maximum Humidity 94    
Minimum Humidity 47    
Precipitation  
Precipitation 0.73 in - - ()
Sea Level Pressure  
Sea Level Pressure 30.08 in    
Wind  
Wind Speed 8 mph (South)    
Max Wind Speed 18 mph    
Max Gust Speed 23 mph    
Visibility 8 miles    
Events Rain , Thunderstorm    
Averages and records for this station are not official NWS values.
T = Trace of Precipitation, MM = Missing Value Source: NWS Daily Summary

Daily Weather History Graph

Daily Weather History Graph

Search for Another Location

Airport:

Trip Planner

Search our weather history database for the weather conditions in past years. The results will help you decide how hot, cold, wet, or windy it might be!

Date:

Astronomy

Jun. 25, 2013 Rise Set
Actual Time 6:36 AM EDT 8:30 PM EDT
Civil Twilight 6:09 AM EDT 8:56 PM EDT
Nautical Twilight 5:37 AM EDT 9:28 PM EDT
Astronomical Twilight 5:03 AM EDT 10:03 PM EDT
Moon 10:31 PM EDT 9:01 AM EDT
Length of Visible Light 14h 47m
Length of Day
13h 53m
Waning Gibbous, 93% of the Moon is Illuminated
Jun 25
Waning Gibbous
Jun 30
Last Quarter
Jul 8
New
Jul 15
First Quarter
Jul 22
Full

Hourly Weather History & Observations

Time (EDT) Temp. Heat Index Dew Point Humidity Pressure Visibility Wind Dir Wind Speed Gust Speed Precip Events Conditions
12:23 AM 81.0 °F 87.9 °F 77.0 °F 88% 30.14 in 10.0 mi North 4.6 mph - N/A   Overcast
12:53 AM 82.9 °F 90.8 °F 75.9 °F 79% 30.13 in 10.0 mi ESE 6.9 mph - N/A   Scattered Clouds
1:53 AM 82.9 °F 89.4 °F 73.9 °F 74% 30.11 in 10.0 mi SSE 15.0 mph - N/A   Clear
2:53 AM 82.0 °F 87.9 °F 73.9 °F 76% 30.11 in 10.0 mi South 10.4 mph - N/A   Clear
3:53 AM 81.0 °F 86.2 °F 73.9 °F 79% 30.09 in 10.0 mi SSE 12.7 mph - N/A   Clear
4:53 AM 81.0 °F 86.7 °F 75.0 °F 82% 30.07 in 10.0 mi SSE 12.7 mph - N/A   Clear
5:53 AM 80.1 °F 85.4 °F 75.9 °F 87% 30.09 in 10.0 mi South 10.4 mph - N/A   Clear
6:53 AM 80.1 °F 85.4 °F 75.9 °F 87% 30.09 in 10.0 mi SSE 6.9 mph - N/A   Clear
7:53 AM 81.0 °F 87.3 °F 75.9 °F 85% 30.10 in 10.0 mi SE 6.9 mph - N/A   Clear
8:53 AM 82.0 °F 88.6 °F 75.0 °F 79% 30.13 in 10.0 mi ESE 6.9 mph - N/A   Clear
9:53 AM 84.0 °F 91.9 °F 75.0 °F 74% 30.13 in 10.0 mi ESE 6.9 mph - N/A   Clear
10:53 AM 84.9 °F 94.1 °F 75.9 °F 74% 30.14 in 10.0 mi East 6.9 mph - N/A   Clear
11:53 AM 87.1 °F 95.4 °F 73.9 °F 65% 30.13 in 10.0 mi East 5.8 mph - N/A   Clear
12:53 PM 88.0 °F 96.5 °F 73.9 °F 63% 30.12 in 10.0 mi ENE 3.5 mph - N/A   Clear
1:53 PM 90.0 °F 96.9 °F 72.0 °F 55% 30.10 in 10.0 mi Calm Calm - N/A   Clear
2:53 PM 91.0 °F 99.3 °F 73.0 °F 55% 30.08 in 10.0 mi Calm Calm - N/A   Clear
3:53 PM 91.9 °F 98.4 °F 71.1 °F 50% 30.06 in 10.0 mi ENE 5.8 mph - N/A   Clear
4:53 PM 91.9 °F 98.4 °F 71.1 °F 50% 30.02 in 10.0 mi ENE 6.9 mph - N/A   Clear
5:53 PM 91.9 °F 97.4 °F 70.0 °F 48% 30.01 in 10.0 mi East 3.5 mph - N/A   Clear
6:53 PM 93.0 °F 99.0 °F 70.0 °F 47% 30.02 in 10.0 mi North 3.5 mph - N/A   Partly Cloudy
7:53 PM 89.1 °F 98.0 °F 73.9 °F 61% 30.02 in 10.0 mi NNW 8.1 mph - N/A   Scattered Clouds
8:50 PM 86.0 °F 93.4 °F 73.4 °F 66% 30.05 in 9.0 mi SSW 15.0 mph - 0.01 in Rain , Thunderstorm Light Thunderstorms and Rain
8:53 PM 86.0 °F 95.1 °F 75.0 °F 70% 30.05 in 5.0 mi SW 15.0 mph - 0.07 in Rain , Thunderstorm Light Thunderstorms and Rain
8:57 PM 84.0 °F 92.6 °F 75.9 °F 76% 30.05 in 1.5 mi West 18.4 mph 23.0 mph 0.12 in Rain , Thunderstorm Heavy Thunderstorms and Rain
9:13 PM 79.0 °F - 75.9 °F 90% 30.05 in 1.5 mi WNW 15.0 mph - 0.34 in Rain , Thunderstorm Heavy Thunderstorms and Rain
9:18 PM 79.0 °F - 75.9 °F 90% 30.07 in 3.0 mi WNW 6.9 mph - 0.37 in Rain , Thunderstorm Thunderstorms and Rain
9:35 PM 80.1 °F 84.5 °F 73.9 °F 81% 30.07 in 2.5 mi SW 4.6 mph - 0.47 in Rain , Thunderstorm Thunderstorms and Rain
9:53 PM 80.1 °F 85.4 °F 75.9 °F 87% 30.09 in 2.5 mi SW 9.2 mph - 0.63 in Rain , Thunderstorm Heavy Thunderstorms and Rain
9:56 PM 79.0 °F - 75.9 °F 90% 30.08 in 3.0 mi WSW 10.4 mph - 0.01 in Rain , Thunderstorm Rain
10:06 PM 79.0 °F - 75.9 °F 90% 30.08 in 7.0 mi West 10.4 mph - 0.01 in Rain , Thunderstorm Light Thunderstorms and Rain
10:21 PM 79.0 °F - 75.9 °F 90% 30.08 in 3.0 mi WSW 5.8 mph - 0.03 in Rain , Thunderstorm Light Rain
10:29 PM 79.0 °F - 75.9 °F 90% 30.07 in 7.0 mi West 4.6 mph - 0.03 in Rain Light Rain
10:53 PM 79.0 °F - 75.9 °F 90% 30.07 in 10.0 mi West 5.8 mph - 0.03 in   Mostly Cloudy
11:53 PM 79.0 °F - 77.0 °F 94% 30.06 in 10.0 mi North 3.5 mph - N/A   Clear